Location: Bieg
(49.3499°N, 10.3835°E)
Time: 12:29:51
(UTC+00:00)

Cosmos 1025 Rocket - Pass Details

Date: 16 July 2025
Orbit: 586 x 610 km, 82.5° (Epoch: 16 December)

Event Time Altitude Azimuth Distance (km) Brightness Sun altitude
Exits shadow 20:51:14 - 186° (S) 2,057 5.3 -11.6°
Reaches altitude 10° 20:51:30 10° 186° (S) 1,951 5.2 -11.7°
Maximum altitude 20:55:49 84° 98° (E) 620 3.0 -12.1°
Drops below altitude 10° 21:00:12 10° 11° (N) 1,978 6.3 -12.5°
Enters shadow 21:58:18 -64° 195° (SSW) 12,083 9.6 -16.9°
